TimeCDT,TemperatureF,Dew PointF,Humidity,Sea Level PressureIn,VisibilityMPH,Wind Direction,Wind SpeedMPH,Gust SpeedMPH,PrecipitationIn,Events,Conditions,WindDirDegrees,DateUTC
12:54 AM,73.0,70.0,90,29.94,10.0,Calm,Calm,-,N/A,,Clear,0,2013-08-30 05:54:00
1:54 AM,73.0,70.0,90,29.93,10.0,Calm,Calm,-,N/A,,Clear,0,2013-08-30 06:54:00
2:54 AM,72.0,69.1,91,29.93,10.0,Calm,Calm,-,N/A,,Clear,0,2013-08-30 07:54:00
3:54 AM,71.1,69.1,93,29.93,10.0,WSW,3.5,-,N/A,,Clear,240,2013-08-30 08:54:00
4:54 AM,72.0,69.1,91,29.93,10.0,Calm,Calm,-,N/A,,Clear,0,2013-08-30 09:54:00
5:54 AM,72.0,69.1,91,29.93,10.0,Calm,Calm,-,N/A,,Clear,0,2013-08-30 10:54:00
6:54 AM,73.0,70.0,90,29.94,10.0,Calm,Calm,-,N/A,,Scattered Clouds,0,2013-08-30 11:54:00
7:54 AM,77.0,71.1,82,29.94,10.0,Calm,Calm,-,N/A,,Partly Cloudy,0,2013-08-30 12:54:00
8:54 AM,82.9,72.0,69,29.94,10.0,WSW,4.6,-,N/A,,Partly Cloudy,240,2013-08-30 13:54:00
9:54 AM,88.0,73.0,61,29.93,10.0,West,4.6,-,N/A,,Clear,280,2013-08-30 14:54:00
10:54 AM,91.9,73.0,54,29.92,10.0,WSW,9.2,-,N/A,,Partly Cloudy,250,2013-08-30 15:54:00
11:54 AM,95.0,71.1,46,29.90,10.0,WSW,8.1,16.1,N/A,,Partly Cloudy,250,2013-08-30 16:54:00
12:54 PM,97.0,70.0,41,29.88,10.0,SW,6.9,-,N/A,,Scattered Clouds,220,2013-08-30 17:54:00
1:54 PM,99.0,68.0,36,29.86,10.0,SW,9.2,-,N/A,,Scattered Clouds,230,2013-08-30 18:54:00
2:54 PM,100.0,64.9,32,29.84,10.0,WSW,9.2,-,N/A,,Scattered Clouds,240,2013-08-30 19:54:00
3:54 PM,97.0,69.1,40,29.83,10.0,SW,6.9,-,N/A,,Mostly Cloudy,220,2013-08-30 20:54:00
4:54 PM,98.1,68.0,37,29.82,10.0,WSW,6.9,-,N/A,,Mostly Cloudy,240,2013-08-30 21:54:00
5:54 PM,96.1,68.0,40,29.81,10.0,WSW,8.1,-,N/A,,Scattered Clouds,240,2013-08-30 22:54:00
6:54 PM,90.0,71.1,54,29.80,10.0,SSW,5.8,-,N/A,,Scattered Clouds,200,2013-08-30 23:54:00
7:54 PM,88.0,70.0,55,29.81,10.0,SSW,5.8,-,N/A,,Mostly Cloudy,200,2013-08-31 00:54:00
8:54 PM,84.0,73.0,69,29.81,10.0,Calm,Calm,-,N/A,,Mostly Cloudy,0,2013-08-31 01:54:00
9:54 PM,84.0,71.1,65,29.81,10.0,West,4.6,-,N/A,,Clear,270,2013-08-31 02:54:00
10:54 PM,82.0,71.1,69,29.81,10.0,West,3.5,-,N/A,,Clear,260,2013-08-31 03:54:00
11:54 PM,80.1,72.0,76,29.81,10.0,Calm,Calm,-,N/A,,Clear,0,2013-08-31 04:54:00